Погода в Ястребовке

Россия / Курская область     51°27′12″N   37°32′36″E
темп.,
°C
ветер,
м/с
пор.,
м/с
влажн.,
%
обл.,
%
осадки,
мм/ч
давл.,
гПа
погр.,
м
27 июля, вт
вт2700:00+21юв22525 0.0 102225
03:00+18в11620 0.0 102211
06:00+18юз22585 0.0 102214
09:00+24юз22435 0.0 1022399
12:00+28зюз22355 0.0 10211948
15:00+29з223154 0.0 10192748
18:00+29юв023397 0.0 10192508
21:00+24ююв1143100 0.0 101913
28 июля, ср
ср2800:00+21зюз22509 0.0 101913
03:00+19ююв115476 0.0 101811
06:00+19ююз225848 0.0 101828
09:00+25ююз4644100 0.0 1017416
12:00+28ююз5636100 0.0 10161280
15:00+29ююз3632100 0.0 10152635
18:00+22ссв3559100 0.0 101482
21:00+20ююв487498 0.6 1013194
29 июля, чт
чт2900:00+18юз359180 3.3 101393
03:00+17зюз36945 3.6 1011128
06:00+18зсз36915 0.0 1011137
09:00+24з346769 0.0 1011415
12:00+29з5743100 0.1 10101897
15:00+30з673822 0.1 10102513
18:00+29сз464310 0.0 1009626
21:00+23ссв11596 0.0 100911
30 июля, пт
пт3000:00+22юз1168100 0.4 101011
03:00+19зсз228489 0.7 100915
06:00+19зсз238816 0.5 101083
09:00+23з227078 0.5 1010566
12:00+27з345599 0.0 10091331
15:00+30з454614 0.0 10082111
18:00+28ссз565650 0.0 1008963
21:00+24сз3467100 0.0 1009105
31 июля, сб
сб3100:00+20сз33750 0.0 100941
03:00+20зюз11720 0.0 100911
06:00+19з34731 0.0 101073
09:00+25зсз45485 0.0 1010534
12:00+29зсз343568 0.0 10101867
15:00+31зюз353242 0.0 10092590
18:00+29сз234515 0.0 1009272
21:00+24зсз225610 0.0 100911